Year,Month,Day,Hour,Minute,Value (Times are PST for temperature in C)
2013,05,05,00,00,15.00
2013,05,05,00,01,14.90
2013,05,05,00,02,14.80
2013,05,05,00,03,14.80
2013,05,05,00,04,14.70
2013,05,05,00,05,14.70
2013,05,05,00,06,14.60
2013,05,05,00,07,14.60
2013,05,05,00,08,14.50
2013,05,05,00,09,14.50
2013,05,05,00,10,14.50
2013,05,05,00,11,14.50
2013,05,05,00,12,14.60
2013,05,05,00,13,14.80
2013,05,05,00,14,15.00
2013,05,05,00,15,15.20
2013,05,05,00,16,15.40
2013,05,05,00,17,15.70
2013,05,05,00,18,15.90
2013,05,05,00,19,16.10
2013,05,05,00,20,16.30
2013,05,05,00,21,16.40
2013,05,05,00,22,16.60
2013,05,05,00,23,16.80
2013,05,05,00,24,16.90
2013,05,05,00,25,17.00
2013,05,05,00,26,17.10
2013,05,05,00,27,17.20
2013,05,05,00,28,17.20
2013,05,05,00,29,17.30
2013,05,05,00,30,17.30
2013,05,05,00,31,17.30
2013,05,05,00,32,17.30
2013,05,05,00,33,17.40
2013,05,05,00,34,17.40
2013,05,05,00,35,17.50
2013,05,05,00,36,17.50
2013,05,05,00,37,17.60
2013,05,05,00,38,17.60
2013,05,05,00,39,17.60
2013,05,05,00,40,17.60
2013,05,05,00,41,17.70
2013,05,05,00,42,17.70
2013,05,05,00,43,17.70
2013,05,05,00,44,17.70
2013,05,05,00,45,17.70
2013,05,05,00,46,17.70
2013,05,05,00,47,17.70
2013,05,05,00,48,17.70
2013,05,05,00,49,17.70
2013,05,05,00,50,17.70
2013,05,05,00,51,17.70
2013,05,05,00,52,17.70
2013,05,05,00,53,17.70
2013,05,05,00,54,17.70
2013,05,05,00,55,17.70
2013,05,05,00,56,17.70
2013,05,05,00,57,17.70
2013,05,05,00,58,17.70
2013,05,05,00,59,17.70
2013,05,05,01,00,17.70
2013,05,05,01,01,17.70
2013,05,05,01,02,17.70
2013,05,05,01,03,17.70
2013,05,05,01,04,17.70
2013,05,05,01,05,17.70
2013,05,05,01,06,17.70
2013,05,05,01,07,17.80
2013,05,05,01,08,17.80
2013,05,05,01,09,17.80
2013,05,05,01,10,17.80
2013,05,05,01,11,17.80
2013,05,05,01,12,17.80
2013,05,05,01,13,17.80
2013,05,05,01,14,17.80
2013,05,05,01,15,17.80
2013,05,05,01,16,17.80
2013,05,05,01,17,17.80
2013,05,05,01,18,17.80
2013,05,05,01,19,17.80
2013,05,05,01,20,17.80
2013,05,05,01,21,17.80
2013,05,05,01,22,17.80
2013,05,05,01,23,17.80
2013,05,05,01,24,17.80
2013,05,05,01,25,17.80
2013,05,05,01,26,17.80
2013,05,05,01,27,17.80
2013,05,05,01,28,17.80
2013,05,05,01,29,17.70
2013,05,05,01,30,17.70
2013,05,05,01,31,17.70
2013,05,05,01,32,17.70
2013,05,05,01,33,17.70
2013,05,05,01,34,17.70
2013,05,05,01,35,17.70
2013,05,05,01,36,17.60
2013,05,05,01,37,17.60
2013,05,05,01,38,17.50
2013,05,05,01,39,17.50
2013,05,05,01,40,17.40
2013,05,05,01,41,17.40
2013,05,05,01,42,17.30
2013,05,05,01,43,17.20
2013,05,05,01,44,17.10
2013,05,05,01,45,17.00
2013,05,05,01,46,17.00
2013,05,05,01,47,16.90
2013,05,05,01,48,16.90
2013,05,05,01,49,16.90
2013,05,05,01,50,16.90
2013,05,05,01,51,16.90
2013,05,05,01,52,16.90
2013,05,05,01,53,16.90
2013,05,05,01,54,16.90
2013,05,05,01,55,16.90
2013,05,05,01,56,16.90
2013,05,05,01,57,16.90
2013,05,05,01,58,16.90
2013,05,05,01,59,16.90
2013,05,05,02,00,17.00
2013,05,05,02,01,17.00
2013,05,05,02,02,17.00
2013,05,05,02,03,16.90
2013,05,05,02,04,16.90
2013,05,05,02,05,16.90
2013,05,05,02,06,16.80
2013,05,05,02,07,16.80
2013,05,05,02,08,16.70
2013,05,05,02,09,16.60
2013,05,05,02,10,16.50
2013,05,05,02,11,16.50
2013,05,05,02,12,16.40
2013,05,05,02,13,16.30
2013,05,05,02,14,16.20
2013,05,05,02,15,16.10
2013,05,05,02,16,16.10
2013,05,05,02,17,15.90
2013,05,05,02,18,15.80
2013,05,05,02,19,15.80
2013,05,05,02,20,15.70
2013,05,05,02,21,15.70
2013,05,05,02,22,15.60
2013,05,05,02,23,15.50
2013,05,05,02,24,15.40
2013,05,05,02,25,15.40
2013,05,05,02,26,15.30
2013,05,05,02,27,15.30
2013,05,05,02,28,15.20
2013,05,05,02,29,15.10
2013,05,05,02,30,15.00
2013,05,05,02,31,15.00
2013,05,05,02,32,15.00
2013,05,05,02,33,14.90
2013,05,05,02,34,14.80
2013,05,05,02,35,14.70
2013,05,05,02,36,14.60
2013,05,05,02,37,14.50
2013,05,05,02,38,14.50
2013,05,05,02,39,14.40
2013,05,05,02,40,14.30
2013,05,05,02,41,14.20
2013,05,05,02,42,14.20
2013,05,05,02,43,14.10
2013,05,05,02,44,14.00
2013,05,05,02,45,14.00
2013,05,05,02,46,13.90
2013,05,05,02,47,13.80
2013,05,05,02,48,13.80
2013,05,05,02,49,13.70
2013,05,05,02,50,13.70
2013,05,05,02,51,13.70
2013,05,05,02,52,13.80
2013,05,05,02,53,13.90
2013,05,05,02,54,13.90
2013,05,05,02,55,14.10
2013,05,05,02,56,14.20
2013,05,05,02,57,14.30
2013,05,05,02,58,14.40
2013,05,05,02,59,14.60
2013,05,05,03,00,14.70
2013,05,05,03,01,15.00
2013,05,05,03,02,15.00
2013,05,05,03,03,15.10
2013,05,05,03,04,15.20
2013,05,05,03,05,15.40
2013,05,05,03,06,15.50
2013,05,05,03,07,15.60
2013,05,05,03,08,15.60
2013,05,05,03,09,15.70
2013,05,05,03,10,15.70
2013,05,05,03,11,15.70
2013,05,05,03,12,15.80
2013,05,05,03,13,15.70
2013,05,05,03,14,15.60
2013,05,05,03,15,15.50
2013,05,05,03,16,15.50
2013,05,05,03,17,15.40
2013,05,05,03,18,15.30
2013,05,05,03,19,15.20
2013,05,05,03,20,15.10
2013,05,05,03,21,15.00
2013,05,05,03,22,15.00
2013,05,05,03,23,15.00
2013,05,05,03,24,15.00
2013,05,05,03,25,14.90
2013,05,05,03,26,14.80
2013,05,05,03,27,14.80
2013,05,05,03,28,14.80
2013,05,05,03,29,14.80
2013,05,05,03,30,14.80
2013,05,05,03,31,14.80
2013,05,05,03,32,14.80
2013,05,05,03,33,14.70
2013,05,05,03,34,14.70
2013,05,05,03,35,14.70
2013,05,05,03,36,14.60
2013,05,05,03,37,14.60
2013,05,05,03,38,14.50
2013,05,05,03,39,14.50
2013,05,05,03,40,14.40
2013,05,05,03,41,14.40
2013,05,05,03,42,14.30
2013,05,05,03,43,14.30
2013,05,05,03,44,14.20
2013,05,05,03,45,14.20
2013,05,05,03,46,14.20
2013,05,05,03,47,14.30
2013,05,05,03,48,14.30
2013,05,05,03,49,14.30
2013,05,05,03,50,14.30
2013,05,05,03,51,14.30
2013,05,05,03,52,14.30
2013,05,05,03,53,14.30
2013,05,05,03,54,14.30
2013,05,05,03,55,14.20
2013,05,05,03,56,14.20
2013,05,05,03,57,14.10
2013,05,05,03,58,14.00
2013,05,05,03,59,13.90
2013,05,05,04,00,13.90
2013,05,05,04,01,13.90
2013,05,05,04,02,13.90
2013,05,05,04,03,13.80
2013,05,05,04,04,13.70
2013,05,05,04,05,13.60
2013,05,05,04,06,13.50
2013,05,05,04,07,13.50
2013,05,05,04,08,13.40
2013,05,05,04,09,13.30
2013,05,05,04,10,13.30
2013,05,05,04,11,13.20
2013,05,05,04,12,13.10
2013,05,05,04,13,13.10
2013,05,05,04,14,13.00
2013,05,05,04,15,13.00
2013,05,05,04,16,12.90
2013,05,05,04,17,12.90
2013,05,05,04,18,12.90
2013,05,05,04,19,12.90
2013,05,05,04,20,12.90
2013,05,05,04,21,12.80
2013,05,05,04,22,12.80
2013,05,05,04,23,12.70
2013,05,05,04,24,12.70
2013,05,05,04,25,12.70
2013,05,05,04,26,12.60
2013,05,05,04,27,12.60
2013,05,05,04,28,12.60
2013,05,05,04,29,12.60
2013,05,05,04,30,12.50
2013,05,05,04,31,12.50
2013,05,05,04,32,12.50
2013,05,05,04,33,12.50
2013,05,05,04,34,12.50
2013,05,05,04,35,12.50
2013,05,05,04,36,12.50
2013,05,05,04,37,12.50
2013,05,05,04,38,12.50
2013,05,05,04,39,12.60
2013,05,05,04,40,12.60
2013,05,05,04,41,12.60
2013,05,05,04,42,12.60
2013,05,05,04,43,12.60
2013,05,05,04,44,12.50
2013,05,05,04,45,12.50
2013,05,05,04,46,12.50
2013,05,05,04,47,12.40
2013,05,05,04,48,12.40
2013,05,05,04,49,12.50
2013,05,05,04,50,12.50
2013,05,05,04,51,12.50
2013,05,05,04,52,12.60
2013,05,05,04,53,12.60
2013,05,05,04,54,12.70
2013,05,05,04,55,12.70
2013,05,05,04,56,12.70
2013,05,05,04,57,12.70
2013,05,05,04,58,12.70
2013,05,05,04,59,12.60
2013,05,05,05,00,12.60
2013,05,05,05,01,12.50
2013,05,05,05,02,12.40
2013,05,05,05,03,12.40
2013,05,05,05,04,12.30
2013,05,05,05,05,12.30
2013,05,05,05,06,12.30
2013,05,05,05,07,12.30
2013,05,05,05,08,12.30
2013,05,05,05,09,12.30
2013,05,05,05,10,12.30
2013,05,05,05,11,12.30
2013,05,05,05,12,12.20
2013,05,05,05,13,12.20
2013,05,05,05,14,12.10
2013,05,05,05,15,12.10
2013,05,05,05,16,12.00
2013,05,05,05,17,12.00
2013,05,05,05,18,11.90
2013,05,05,05,19,11.90
2013,05,05,05,20,11.80
2013,05,05,05,21,11.80
2013,05,05,05,22,11.80
2013,05,05,05,23,11.80
2013,05,05,05,24,11.70
2013,05,05,05,25,11.70
2013,05,05,05,26,11.70
2013,05,05,05,27,11.60
2013,05,05,05,28,11.60
2013,05,05,05,29,11.60
2013,05,05,05,30,11.60
2013,05,05,05,31,11.60
2013,05,05,05,32,11.60
2013,05,05,05,33,11.60
2013,05,05,05,34,11.60
2013,05,05,05,35,11.60
2013,05,05,05,36,11.60
2013,05,05,05,37,11.60
2013,05,05,05,38,11.60
2013,05,05,05,39,11.60
2013,05,05,05,40,11.60
2013,05,05,05,41,11.60
2013,05,05,05,42,11.60
2013,05,05,05,43,11.60
2013,05,05,05,44,11.50
2013,05,05,05,45,11.50
2013,05,05,05,46,11.50
2013,05,05,05,47,11.40
2013,05,05,05,48,11.40
2013,05,05,05,49,11.40
2013,05,05,05,50,11.40
2013,05,05,05,51,11.40
2013,05,05,05,52,11.40
2013,05,05,05,53,11.40
2013,05,05,05,54,11.40
2013,05,05,05,55,11.40
2013,05,05,05,56,11.40
2013,05,05,05,57,11.40
2013,05,05,05,58,11.40
2013,05,05,05,59,11.40
2013,05,05,06,00,11.40
2013,05,05,06,01,11.40
2013,05,05,06,02,11.40
2013,05,05,06,03,11.50
2013,05,05,06,04,11.60
2013,05,05,06,05,11.60
2013,05,05,06,06,11.70
2013,05,05,06,07,11.70
2013,05,05,06,08,11.70
2013,05,05,06,09,11.70
2013,05,05,06,10,11.70
2013,05,05,06,11,11.70
2013,05,05,06,12,11.70
2013,05,05,06,13,11.70
2013,05,05,06,14,11.70
2013,05,05,06,15,11.70
2013,05,05,06,16,11.60
2013,05,05,06,17,11.60
2013,05,05,06,18,11.60
2013,05,05,06,19,11.60
2013,05,05,06,20,11.60
2013,05,05,06,21,11.60
2013,05,05,06,22,11.60
2013,05,05,06,23,11.60
2013,05,05,06,24,11.60
2013,05,05,06,25,11.70
2013,05,05,06,26,11.70
2013,05,05,06,27,11.80
2013,05,05,06,28,11.90
2013,05,05,06,29,11.90
2013,05,05,06,30,12.10
2013,05,05,06,31,12.20
2013,05,05,06,32,12.40
2013,05,05,06,33,12.60
2013,05,05,06,34,12.70
2013,05,05,06,35,12.90
2013,05,05,06,36,13.00
2013,05,05,06,37,13.10
2013,05,05,06,38,13.20
2013,05,05,06,39,13.40
2013,05,05,06,40,13.50
2013,05,05,06,41,13.50
2013,05,05,06,42,13.60
2013,05,05,06,43,13.70
2013,05,05,06,44,13.80
2013,05,05,06,45,13.80
2013,05,05,06,46,13.90
2013,05,05,06,47,14.00
2013,05,05,06,48,14.00
2013,05,05,06,49,14.10
2013,05,05,06,50,14.10
2013,05,05,06,51,14.20
2013,05,05,06,52,14.20
2013,05,05,06,53,14.20
2013,05,05,06,54,14.30
2013,05,05,06,55,14.30
2013,05,05,06,56,14.30
2013,05,05,06,57,14.30
2013,05,05,06,58,14.30
2013,05,05,06,59,14.30
2013,05,05,07,00,14.30
2013,05,05,07,01,14.30
2013,05,05,07,02,14.30
2013,05,05,07,03,14.30
2013,05,05,07,04,14.40
2013,05,05,07,05,14.40
2013,05,05,07,06,14.50
2013,05,05,07,07,14.60
2013,05,05,07,08,14.70
2013,05,05,07,09,14.80
2013,05,05,07,10,14.90
2013,05,05,07,11,15.00
2013,05,05,07,12,15.00
2013,05,05,07,13,15.00
2013,05,05,07,14,15.10
2013,05,05,07,15,15.20
2013,05,05,07,16,15.30
2013,05,05,07,17,15.40
2013,05,05,07,18,15.50
2013,05,05,07,19,15.60
2013,05,05,07,20,15.60
2013,05,05,07,21,15.70
2013,05,05,07,22,15.80
2013,05,05,07,23,15.80
2013,05,05,07,24,15.90
2013,05,05,07,25,15.90
2013,05,05,07,26,16.00
2013,05,05,07,27,16.10
2013,05,05,07,28,16.10
2013,05,05,07,29,16.20
2013,05,05,07,30,16.20
2013,05,05,07,31,16.30
2013,05,05,07,32,16.30
2013,05,05,07,33,16.30
2013,05,05,07,34,16.40
2013,05,05,07,35,16.40
2013,05,05,07,36,16.50
2013,05,05,07,37,16.50
2013,05,05,07,38,16.60
2013,05,05,07,39,16.60
2013,05,05,07,40,16.60
2013,05,05,07,41,16.60
2013,05,05,07,42,16.70
2013,05,05,07,43,16.70
2013,05,05,07,44,16.70
2013,05,05,07,45,16.70
2013,05,05,07,46,16.80
2013,05,05,07,47,16.80
2013,05,05,07,48,16.80
2013,05,05,07,49,16.90
2013,05,05,07,50,16.90
2013,05,05,07,51,16.90
2013,05,05,07,52,16.90
2013,05,05,07,53,17.00
2013,05,05,07,54,17.00
2013,05,05,07,55,17.10
2013,05,05,07,56,17.10
2013,05,05,07,57,17.20
2013,05,05,07,58,17.20
2013,05,05,07,59,17.30
2013,05,05,08,00,17.40
2013,05,05,08,01,17.50
2013,05,05,08,02,17.50
2013,05,05,08,03,17.60
2013,05,05,08,04,17.60
2013,05,05,08,05,17.60
2013,05,05,08,06,17.60
2013,05,05,08,07,17.60
2013,05,05,08,08,17.60
2013,05,05,08,09,17.70
2013,05,05,08,10,17.70
2013,05,05,08,11,17.70
2013,05,05,08,12,17.70
2013,05,05,08,13,17.80
2013,05,05,08,14,17.80
2013,05,05,08,15,17.90
2013,05,05,08,16,17.90
2013,05,05,08,17,18.00
2013,05,05,08,18,18.00
2013,05,05,08,19,18.10
2013,05,05,08,20,18.10
2013,05,05,08,21,18.20
2013,05,05,08,22,18.20
2013,05,05,08,23,18.20
2013,05,05,08,24,18.20
2013,05,05,08,25,18.20
2013,05,05,08,26,18.20
2013,05,05,08,27,18.30
2013,05,05,08,28,18.30
2013,05,05,08,29,18.40
2013,05,05,08,30,18.40
2013,05,05,08,31,18.50
2013,05,05,08,32,18.50
2013,05,05,08,33,18.60
2013,05,05,08,34,18.60
2013,05,05,08,35,18.60
2013,05,05,08,36,18.60
2013,05,05,08,37,18.60
2013,05,05,08,38,18.60
2013,05,05,08,39,18.60
2013,05,05,08,40,18.60
2013,05,05,08,41,18.60
2013,05,05,08,42,18.60
2013,05,05,08,43,18.60
2013,05,05,08,44,18.60
2013,05,05,08,45,18.60
2013,05,05,08,46,18.60
2013,05,05,08,47,18.60
2013,05,05,08,48,18.60
2013,05,05,08,49,18.60
2013,05,05,08,50,18.60
2013,05,05,08,51,18.60
2013,05,05,08,52,18.60
2013,05,05,08,53,18.60
2013,05,05,08,54,18.70
2013,05,05,08,55,18.70
2013,05,05,08,56,18.80
2013,05,05,08,57,18.80
2013,05,05,08,58,18.80
2013,05,05,08,59,18.80
2013,05,05,09,00,18.80
2013,05,05,09,01,18.70
2013,05,05,09,02,18.70
2013,05,05,09,03,18.70
2013,05,05,09,04,18.80
2013,05,05,09,05,18.80
2013,05,05,09,06,18.80
2013,05,05,09,07,18.90
2013,05,05,09,08,18.90
2013,05,05,09,09,19.00
2013,05,05,09,10,19.00
2013,05,05,09,11,19.00
2013,05,05,09,12,19.00
2013,05,05,09,13,19.00
2013,05,05,09,14,18.90
2013,05,05,09,15,18.90
2013,05,05,09,16,18.90
2013,05,05,09,17,19.00
2013,05,05,09,18,19.00
2013,05,05,09,19,19.10
2013,05,05,09,20,19.20
2013,05,05,09,21,19.20
2013,05,05,09,22,19.20
2013,05,05,09,23,19.20
2013,05,05,09,24,19.30
2013,05,05,09,25,19.30
2013,05,05,09,26,19.40
2013,05,05,09,27,19.40
2013,05,05,09,28,19.50
2013,05,05,09,29,19.60
2013,05,05,09,30,19.50
2013,05,05,09,31,19.50
2013,05,05,09,32,19.40
2013,05,05,09,33,19.40
2013,05,05,09,34,19.30
2013,05,05,09,35,19.30
2013,05,05,09,36,19.20
2013,05,05,09,37,19.20
2013,05,05,09,38,19.20
2013,05,05,09,39,19.20
2013,05,05,09,40,19.20
2013,05,05,09,41,19.20
2013,05,05,09,42,19.20
2013,05,05,09,43,19.20
2013,05,05,09,44,19.20
2013,05,05,09,45,19.20
2013,05,05,09,46,19.20
2013,05,05,09,47,19.20
2013,05,05,09,48,19.20
2013,05,05,09,49,19.20
2013,05,05,09,50,19.20
2013,05,05,09,51,19.20
2013,05,05,09,52,19.20
2013,05,05,09,53,19.10
2013,05,05,09,54,19.00
2013,05,05,09,55,18.90
2013,05,05,09,56,18.80
2013,05,05,09,57,18.80
2013,05,05,09,58,18.70
2013,05,05,09,59,18.60
2013,05,05,10,00,18.60
2013,05,05,10,01,18.60
2013,05,05,10,02,18.50
2013,05,05,10,03,18.40
2013,05,05,10,04,18.40
2013,05,05,10,05,18.30
2013,05,05,10,06,18.30
2013,05,05,10,07,18.30
2013,05,05,10,08,18.30
2013,05,05,10,09,18.30
2013,05,05,10,10,18.30
2013,05,05,10,11,18.20
2013,05,05,10,12,18.20
2013,05,05,10,13,18.20
2013,05,05,10,14,18.20
2013,05,05,10,15,18.10
2013,05,05,10,16,18.10
2013,05,05,10,17,18.00
2013,05,05,10,18,17.90
2013,05,05,10,19,17.90
2013,05,05,10,20,17.90
2013,05,05,10,21,17.90
2013,05,05,10,22,18.00
2013,05,05,10,23,18.00
2013,05,05,10,24,18.00
2013,05,05,10,25,18.10
2013,05,05,10,26,18.10
2013,05,05,10,27,18.10
2013,05,05,10,28,18.00
2013,05,05,10,29,18.00
2013,05,05,10,30,18.00
2013,05,05,10,31,18.00
2013,05,05,10,32,18.00
2013,05,05,10,33,18.00
2013,05,05,10,34,17.90
2013,05,05,10,35,17.90
2013,05,05,10,36,17.90
2013,05,05,10,37,17.90
2013,05,05,10,38,17.80
2013,05,05,10,39,17.80
2013,05,05,10,40,17.70
2013,05,05,10,41,17.70
2013,05,05,10,42,17.60
2013,05,05,10,43,17.60
2013,05,05,10,44,17.50
2013,05,05,10,45,17.40
2013,05,05,10,46,17.40
2013,05,05,10,47,17.40
2013,05,05,10,48,17.40
2013,05,05,10,49,17.40
2013,05,05,10,50,17.40
2013,05,05,10,51,17.40
2013,05,05,10,52,17.40
2013,05,05,10,53,17.40
2013,05,05,10,54,17.40
2013,05,05,10,55,17.30
2013,05,05,10,56,17.30
2013,05,05,10,57,17.30
2013,05,05,10,58,17.30
2013,05,05,10,59,17.30
2013,05,05,11,00,17.40
2013,05,05,11,01,17.40
2013,05,05,11,02,17.40
2013,05,05,11,03,17.40
2013,05,05,11,04,17.40
2013,05,05,11,05,17.50
2013,05,05,11,06,17.50
2013,05,05,11,07,17.60
2013,05,05,11,08,17.60
2013,05,05,11,09,17.70
2013,05,05,11,10,17.70
2013,05,05,11,11,17.70
2013,05,05,11,12,17.80
2013,05,05,11,13,17.80
2013,05,05,11,14,17.90
2013,05,05,11,15,18.00
2013,05,05,11,16,18.10
2013,05,05,11,17,18.20
2013,05,05,11,18,18.20
2013,05,05,11,19,18.20
2013,05,05,11,20,18.30
2013,05,05,11,21,18.30
2013,05,05,11,22,18.30
2013,05,05,11,23,18.40
2013,05,05,11,24,18.50
2013,05,05,11,25,18.60
2013,05,05,11,26,18.70
2013,05,05,11,27,18.70
2013,05,05,11,28,18.80
2013,05,05,11,29,18.80
2013,05,05,11,30,18.80
2013,05,05,11,31,18.70
2013,05,05,11,32,18.70
2013,05,05,11,33,18.70
2013,05,05,11,34,18.70
2013,05,05,11,35,18.70
2013,05,05,11,36,18.60
2013,05,05,11,37,18.60
2013,05,05,11,38,18.50
2013,05,05,11,39,18.50
2013,05,05,11,40,18.40
2013,05,05,11,41,18.30
2013,05,05,11,42,18.30
2013,05,05,11,43,18.20
2013,05,05,11,44,18.10
2013,05,05,11,45,18.00
2013,05,05,11,46,17.90
2013,05,05,11,47,17.80
2013,05,05,11,48,17.80
2013,05,05,11,49,17.80
2013,05,05,11,50,17.90
2013,05,05,11,51,17.90
2013,05,05,11,52,17.90
2013,05,05,11,53,17.90
2013,05,05,11,54,17.90
2013,05,05,11,55,17.90
2013,05,05,11,56,18.00
2013,05,05,11,57,18.00
2013,05,05,11,58,18.00
2013,05,05,11,59,18.00
2013,05,05,12,00,17.90
2013,05,05,12,01,17.80
2013,05,05,12,02,17.80
2013,05,05,12,03,17.80
2013,05,05,12,04,17.90
2013,05,05,12,05,18.00
2013,05,05,12,06,18.10
2013,05,05,12,07,18.10
2013,05,05,12,08,18.10
2013,05,05,12,09,18.00
2013,05,05,12,10,18.00
2013,05,05,12,11,18.00
2013,05,05,12,12,18.00
2013,05,05,12,13,18.10
2013,05,05,12,14,18.10
2013,05,05,12,15,18.10
2013,05,05,12,16,18.20
2013,05,05,12,17,18.20
2013,05,05,12,18,18.20
2013,05,05,12,19,18.10
2013,05,05,12,20,18.10
2013,05,05,12,21,18.10
2013,05,05,12,22,18.10
2013,05,05,12,23,18.00
2013,05,05,12,24,18.00
2013,05,05,12,25,17.90
2013,05,05,12,26,17.90
2013,05,05,12,27,18.00
2013,05,05,12,28,18.00
2013,05,05,12,29,18.10
2013,05,05,12,30,18.10
2013,05,05,12,31,18.10
2013,05,05,12,32,18.10
2013,05,05,12,33,18.10
2013,05,05,12,34,18.10
2013,05,05,12,35,18.20
2013,05,05,12,36,18.30
2013,05,05,12,37,18.30
2013,05,05,12,38,18.40
2013,05,05,12,39,18.40
2013,05,05,12,40,18.40
2013,05,05,12,41,18.40
2013,05,05,12,42,18.40
2013,05,05,12,43,18.50
2013,05,05,12,44,18.50
2013,05,05,12,45,18.60
2013,05,05,12,46,18.60
2013,05,05,12,47,18.70
2013,05,05,12,48,18.70
2013,05,05,12,49,18.80
2013,05,05,12,50,18.80
2013,05,05,12,51,18.70
2013,05,05,12,52,18.80
2013,05,05,12,53,18.80
2013,05,05,12,54,18.80
2013,05,05,12,55,18.80
2013,05,05,12,56,18.80
2013,05,05,12,57,18.80
2013,05,05,12,58,18.80
2013,05,05,12,59,18.80
2013,05,05,13,00,18.80
2013,05,05,13,01,18.70
2013,05,05,13,02,18.60
2013,05,05,13,03,18.60
2013,05,05,13,04,18.50
2013,05,05,13,05,18.50
2013,05,05,13,06,18.40
2013,05,05,13,07,18.40
2013,05,05,13,08,18.40
2013,05,05,13,09,18.40
2013,05,05,13,10,18.40
2013,05,05,13,11,18.40
2013,05,05,13,12,18.50
2013,05,05,13,13,18.60
2013,05,05,13,14,18.60
2013,05,05,13,15,18.60
2013,05,05,13,16,18.70
2013,05,05,13,17,18.70
2013,05,05,13,18,18.70
2013,05,05,13,19,18.80
2013,05,05,13,20,18.80
2013,05,05,13,21,18.80
2013,05,05,13,22,18.90
2013,05,05,13,23,18.90
2013,05,05,13,24,18.90
2013,05,05,13,25,19.00
2013,05,05,13,26,19.10
2013,05,05,13,27,19.10
2013,05,05,13,28,19.20
2013,05,05,13,29,19.20
2013,05,05,13,30,19.20
2013,05,05,13,31,19.20
2013,05,05,13,32,19.20
2013,05,05,13,33,19.20
2013,05,05,13,34,19.20
2013,05,05,13,35,19.30
2013,05,05,13,36,19.30
2013,05,05,13,37,19.30
2013,05,05,13,38,19.40
2013,05,05,13,39,19.40
2013,05,05,13,40,19.40
2013,05,05,13,41,19.50
2013,05,05,13,42,19.50
2013,05,05,13,43,19.60
2013,05,05,13,44,19.70
2013,05,05,13,45,19.80
2013,05,05,13,46,19.90
2013,05,05,13,47,20.00
2013,05,05,13,48,20.10
2013,05,05,13,49,20.20
2013,05,05,13,50,20.20
2013,05,05,13,51,20.30
2013,05,05,13,52,20.40
2013,05,05,13,53,20.50
2013,05,05,13,54,20.50
2013,05,05,13,55,20.60
2013,05,05,13,56,20.60
2013,05,05,13,57,20.60
2013,05,05,13,58,20.70
2013,05,05,13,59,20.70
2013,05,05,14,00,20.70
2013,05,05,14,01,20.70
2013,05,05,14,02,20.70
2013,05,05,14,03,20.80
2013,05,05,14,04,20.80
2013,05,05,14,05,20.90
2013,05,05,14,06,21.00
2013,05,05,14,07,21.10
2013,05,05,14,08,21.20
2013,05,05,14,09,21.20
2013,05,05,14,10,21.20
2013,05,05,14,11,21.30
2013,05,05,14,12,21.30
2013,05,05,14,13,21.40
2013,05,05,14,14,21.40
2013,05,05,14,15,21.40
2013,05,05,14,16,21.50
2013,05,05,14,17,21.50
2013,05,05,14,18,21.50
2013,05,05,14,19,21.60
2013,05,05,14,20,21.60
2013,05,05,14,21,21.60
2013,05,05,14,22,21.60
2013,05,05,14,23,21.70
2013,05,05,14,24,21.70
2013,05,05,14,25,21.70
2013,05,05,14,26,21.80
2013,05,05,14,27,21.80
2013,05,05,14,28,21.90
2013,05,05,14,29,22.00
2013,05,05,14,30,22.10
2013,05,05,14,31,22.20
2013,05,05,14,32,22.30
2013,05,05,14,33,22.30
2013,05,05,14,34,22.40
2013,05,05,14,35,22.40
2013,05,05,14,36,22.50
2013,05,05,14,37,22.60
2013,05,05,14,38,22.60
2013,05,05,14,39,22.70
2013,05,05,14,40,22.80
2013,05,05,14,41,22.90
2013,05,05,14,42,23.00
2013,05,05,14,43,23.10
2013,05,05,14,44,23.10
2013,05,05,14,45,23.20
2013,05,05,14,46,23.20
2013,05,05,14,47,23.20
2013,05,05,14,48,23.20
2013,05,05,14,49,23.20
2013,05,05,14,50,23.20
2013,05,05,14,51,23.30
2013,05,05,14,52,23.30
2013,05,05,14,53,23.40
2013,05,05,14,54,23.40
2013,05,05,14,55,23.50
2013,05,05,14,56,23.60
2013,05,05,14,57,23.60
2013,05,05,14,58,23.70
2013,05,05,14,59,23.70
2013,05,05,15,00,23.80
2013,05,05,15,01,23.80
2013,05,05,15,02,23.80
2013,05,05,15,03,23.90
2013,05,05,15,04,23.90
2013,05,05,15,05,23.90
2013,05,05,15,06,23.90
2013,05,05,15,07,23.90
2013,05,05,15,08,24.00
2013,05,05,15,09,24.00
2013,05,05,15,10,24.00
2013,05,05,15,11,24.00
2013,05,05,15,12,24.00
2013,05,05,15,13,24.10
2013,05,05,15,14,24.10
2013,05,05,15,15,24.20
2013,05,05,15,16,24.20
2013,05,05,15,17,24.20
2013,05,05,15,18,24.20
2013,05,05,15,19,24.30
2013,05,05,15,20,24.40
2013,05,05,15,21,24.50
2013,05,05,15,22,24.60
2013,05,05,15,23,24.70
2013,05,05,15,24,24.80
2013,05,05,15,25,24.80
2013,05,05,15,26,24.90
2013,05,05,15,27,24.90
2013,05,05,15,28,24.90
2013,05,05,15,29,25.00
2013,05,05,15,30,25.10
2013,05,05,15,31,25.10
2013,05,05,15,32,25.20
2013,05,05,15,33,25.30
2013,05,05,15,34,25.30
2013,05,05,15,35,25.40
2013,05,05,15,36,25.40
2013,05,05,15,37,25.40
2013,05,05,15,38,25.40
2013,05,05,15,39,25.50
2013,05,05,15,40,25.50
2013,05,05,15,41,25.60
2013,05,05,15,42,25.60
2013,05,05,15,43,25.70
2013,05,05,15,44,25.80
2013,05,05,15,45,25.80
2013,05,05,15,46,25.90
2013,05,05,15,47,25.90
2013,05,05,15,48,25.90
2013,05,05,15,49,25.90
2013,05,05,15,50,25.90
2013,05,05,15,51,26.00
2013,05,05,15,52,26.10
2013,05,05,15,53,26.10
2013,05,05,15,54,26.20
2013,05,05,15,55,26.20
2013,05,05,15,56,26.20
2013,05,05,15,57,26.30
2013,05,05,15,58,26.30
2013,05,05,15,59,26.30
2013,05,05,16,00,26.20
2013,05,05,16,01,26.20
2013,05,05,16,02,26.10
2013,05,05,16,03,25.90
2013,05,05,16,04,25.90
2013,05,05,16,05,25.90
2013,05,05,16,06,25.80
2013,05,05,16,07,25.70
2013,05,05,16,08,25.70
2013,05,05,16,09,25.60
2013,05,05,16,10,25.60
2013,05,05,16,11,25.60
2013,05,05,16,12,25.60
2013,05,05,16,13,25.60
2013,05,05,16,14,25.70
2013,05,05,16,15,25.70
2013,05,05,16,16,25.70
2013,05,05,16,17,25.70
2013,05,05,16,18,25.70
2013,05,05,16,19,25.60
2013,05,05,16,20,25.40
2013,05,05,16,21,25.30
2013,05,05,16,22,25.10
2013,05,05,16,23,24.90
2013,05,05,16,24,24.80
2013,05,05,16,25,24.80
2013,05,05,16,26,24.80
2013,05,05,16,27,24.80
2013,05,05,16,28,24.80
2013,05,05,16,29,24.80
2013,05,05,16,30,24.80
2013,05,05,16,31,24.80
2013,05,05,16,32,24.80
2013,05,05,16,33,24.80
2013,05,05,16,34,24.80
2013,05,05,16,35,24.80
2013,05,05,16,36,24.80
2013,05,05,16,37,24.80
2013,05,05,16,38,24.80
2013,05,05,16,39,24.80
2013,05,05,16,40,24.80
2013,05,05,16,41,24.80
2013,05,05,16,42,24.80
2013,05,05,16,43,24.80
2013,05,05,16,44,24.80
2013,05,05,16,45,24.80
2013,05,05,16,46,24.80
2013,05,05,16,47,24.80
2013,05,05,16,48,24.90
2013,05,05,16,49,24.90
2013,05,05,16,50,24.90
2013,05,05,16,51,24.90
2013,05,05,16,52,24.90
2013,05,05,16,53,24.90
2013,05,05,16,54,24.90
2013,05,05,16,55,24.90
2013,05,05,16,56,24.90
2013,05,05,16,57,24.90
2013,05,05,16,58,24.90
2013,05,05,16,59,24.90
2013,05,05,17,00,25.00
2013,05,05,17,01,25.00
2013,05,05,17,02,25.00
2013,05,05,17,03,25.10
2013,05,05,17,04,25.10
2013,05,05,17,05,25.20
2013,05,05,17,06,25.20
2013,05,05,17,07,25.30
2013,05,05,17,08,25.30
2013,05,05,17,09,25.30
2013,05,05,17,10,25.30
2013,05,05,17,11,25.40
2013,05,05,17,12,25.40
2013,05,05,17,13,25.40
2013,05,05,17,14,25.40
2013,05,05,17,15,25.40
2013,05,05,17,16,25.40
2013,05,05,17,17,25.40
2013,05,05,17,18,25.40
2013,05,05,17,19,25.40